This demonstration page uses our WeatherBlox Daily Observations layout. Learn more.

Left ArrowRight Arrow

Hourly Observations for March 27, 2019

Temp ( °F °C ) Dew Point ( °F °C ) Humidity (%) Winds ( mph kmh ) Pressure ( in mb ) Visibility ( mi km ) Precip ( " mm )
12:51 am 00:51 Clear 55 12.8 34 1.1 45 45 NE 3 6 29.88 1012 10 16 N/A
1:51 am 01:51 Clear 57 13.9 33 0.6 41 41 E 3 6 29.88 1012 10 16 N/A
2:51 am 02:51 Clear 54 12.2 34 1.1 47 47 ESE 3 6 29.88 1012 10 16 N/A
3:51 am 03:51 Clear 53 11.7 34 1.1 48 48 SE 5 7 29.89 1012 10 16 N/A
4:51 am 04:51 Clear 52 11.1 34 1.1 50 50 E 7 11 29.89 1012 10 16 N/A
5:51 am 05:51 Clear 52 11.1 34 1.1 50 50 ESE 6 9 29.91 1013 10 16 N/A
6:51 am 06:51 Sunny 51 10.6 35 1.7 54 54 N N/A 29.95 1014 10 16 N/A
7:51 am 07:51 Sunny 57 13.9 35 1.7 44 44 SSE 3 6 29.97 1015 10 16 N/A
8:51 am 08:51 Sunny 65 18.3 35 1.7 33 33 N N/A 29.97 1015 10 16 N/A
9:51 am 09:51 Sunny N/A N/A N/A undefined N/A N/A N/A N/A
10:51 am 10:51 Sunny N/A N/A N/A undefined N/A N/A N/A N/A
11:51 am 11:51 Sunny 77 25 31 -0.6 18 18 S 5 7 29.93 1014 N/A N/A
12:51 pm 12:51 Sunny 79 26.1 29 -1.7 16 16 VRB 3 6 29.92 1013 10 16 N/A
1:51 pm 13:51 Sunny 80 26.7 28 -2.2 15 15 N N/A 29.88 1012 10 16 N/A
2:51 pm 14:51 Sunny 82 27.8 24 -4.4 12 12 N N/A 29.87 1012 10 16 N/A
3:51 pm 15:51 Sunny 83 28.3 26 -3.3 12 12 N 5 7 29.86 1011 10 16 N/A
4:51 pm 16:51 Sunny 83 28.3 25 -3.9 12 12 NNW 6 9 29.86 1011 10 16 N/A
5:51 pm 17:51 Sunny 80 26.7 28 -2.2 15 15 WNW 10 17 29.88 1012 10 16 N/A
6:51 pm 18:51 Clear 75 23.9 32 undefined 21 21 NW 10 17 29.90 1013 10 16 N/A
7:51 pm 19:51 Clear 71 21.7 32 undefined 24 24 NNW 8 13 29.92 1013 10 16 N/A
8:51 pm 20:51 Clear 70 21.1 32 undefined 25 25 NW 8 13 29.93 1013 10 16 N/A
9:51 pm 21:51 Clear 67 19.4 32 undefined 27 27 NW 9 15 29.93 1014 10 16 N/A
10:51 pm 22:51 Clear 60 15.6 33 0.6 36 36 NW 8 13 29.98 1015 10 16 N/A
11:51 pm 23:51 Clear 56 13.3 31 -0.6 39 39 SSE 5 7 29.99 1016 10 16 N/A

Powered by AerisWeather